Tiempo cada hora Mulyary

Hoy, 22 Octubre, Jueves

Tiempo Temperatura Precipitaciones Viento Presión Humedad
00:00 +8°C° 0.3 mm 3 mps 739 mmHg 91%
01:00 +7°C° 0.3 mm 4 mps 739 mmHg 89%
02:00 +7°C° 0.3 mm 4 mps 738 mmHg 88%
03:00 +7°C° 0 mm 4 mps 738 mmHg 87%
04:00 +7°C° 0 mm 4 mps 738 mmHg 86%
05:00 +7°C° 0 mm 4 mps 737 mmHg 85%
06:00 +7°C° 0 mm 5 mps 737 mmHg 85%
07:00 +7°C° 0 mm 5 mps 737 mmHg 86%
08:00 +6°C° 0 mm 5 mps 737 mmHg 87%
09:00 +8°C° 0 mm 5 mps 737 mmHg 83%
10:00 +9°C° 0 mm 6 mps 737 mmHg 78%
11:00 +11°C° 0 mm 6 mps 737 mmHg 73%
12:00 +13°C° 0 mm 6 mps 737 mmHg 71%
13:00 +14°C° 0 mm 7 mps 738 mmHg 69%
14:00 +15°C° 0 mm 7 mps 738 mmHg 66%
15:00 +14°C° 0 mm 6 mps 738 mmHg 70%
16:00 +14°C° 0 mm 6 mps 738 mmHg 74%
17:00 +13°C° 0 mm 5 mps 738 mmHg 78%
18:00 +12°C° 0 mm 5 mps 738 mmHg 81%
19:00 +12°C° 0 mm 4 mps 738 mmHg 84%
20:00 +11°C° 0 mm 4 mps 738 mmHg 87%
21:00 +11°C° 0 mm 4 mps 738 mmHg 89%
22:00 +11°C° 0 mm 4 mps 738 mmHg 90%
23:00 +10°C° 0 mm 3 mps 738 mmHg 92%

Mañana, 23 Octubre, Viernes

Tiempo Temperatura Precipitaciones Viento Presión Humedad
00:00 +10°C° 0 mm 3 mps 739 mmHg 92%
01:00 +10°C° 0 mm 3 mps 739 mmHg 93%
02:00 +10°C° 0 mm 3 mps 739 mmHg 94%
03:00 +10°C° 0 mm 3 mps 739 mmHg 94%
04:00 +10°C° 0 mm 3 mps 738 mmHg 94%
05:00 +10°C° 0 mm 3 mps 738 mmHg 94%
06:00 +10°C° 0 mm 4 mps 737 mmHg 93%
07:00 +10°C° 0 mm 4 mps 737 mmHg 92%
08:00 +10°C° 0 mm 4 mps 737 mmHg 91%
09:00 +10°C° 0 mm 5 mps 737 mmHg 87%
10:00 +12°C° 0 mm 5 mps 736 mmHg 83%
11:00 +13°C° 0 mm 5 mps 736 mmHg 80%
12:00 +12°C° 1 mm 5 mps 736 mmHg 83%
13:00 +12°C° 1 mm 5 mps 736 mmHg 86%
14:00 +12°C° 1 mm 5 mps 736 mmHg 90%
15:00 +12°C° 0.1 mm 5 mps 736 mmHg 90%
16:00 +12°C° 0.1 mm 4 mps 736 mmHg 90%
17:00 +12°C° 0.1 mm 4 mps 736 mmHg 90%
18:00 +11°C° 0 mm 4 mps 736 mmHg 91%
19:00 +10°C° 0 mm 3 mps 737 mmHg 92%
20:00 +10°C° 0 mm 3 mps 737 mmHg 93%
21:00 +9°C° 0 mm 2 mps 737 mmHg 93%
22:00 +9°C° 0 mm 2 mps 737 mmHg 93%
23:00 +9°C° 0 mm 1 mps 737 mmHg 93%

Pasado mañana, 24 Octubre, Sábado

Tiempo Temperatura Precipitaciones Viento Presión Humedad
00:00 +9°C° 0 mm 1 mps 737 mmHg 93%
01:00 +9°C° 0 mm 1 mps 737 mmHg 92%
02:00 +9°C° 0 mm 1 mps 738 mmHg 92%
03:00 +9°C° 0 mm 1 mps 737 mmHg 92%
04:00 +9°C° 0 mm 1 mps 737 mmHg 93%
05:00 +8°C° 0 mm 2 mps 737 mmHg 94%
06:00 +8°C° 0 mm 2 mps 737 mmHg 94%
07:00 +8°C° 0 mm 2 mps 736 mmHg 95%
08:00 +9°C° 0 mm 2 mps 736 mmHg 96%
09:00 +9°C° 1.2 mm 2 mps 736 mmHg 96%
10:00 +9°C° 1.2 mm 3 mps 736 mmHg 97%
11:00 +10°C° 1.2 mm 3 mps 735 mmHg 97%
12:00 +10°C° 2.9 mm 3 mps 735 mmHg 97%
13:00 +10°C° 2.9 mm 3 mps 735 mmHg 97%
14:00 +10°C° 2.9 mm 3 mps 735 mmHg 97%
15:00 +10°C° 1.1 mm 4 mps 735 mmHg 95%
16:00 +10°C° 1.1 mm 4 mps 735 mmHg 93%
17:00 +8°C° 1.1 mm 4 mps 735 mmHg 91%
18:00 +8°C° 0 mm 4 mps 736 mmHg 93%
19:00 +8°C° 0 mm 3 mps 736 mmHg 94%
20:00 +7°C° 0 mm 2 mps 737 mmHg 96%
21:00 +7°C° 0 mm 3 mps 737 mmHg 96%
22:00 +7°C° 0 mm 3 mps 738 mmHg 95%
23:00 +8°C° 0 mm 3 mps 738 mmHg 95%

, 25 Octubre, Domingo

Tiempo Temperatura Precipitaciones Viento Presión Humedad
00:00 +8°C° 0 mm 3 mps 738 mmHg 95%
01:00 +8°C° 0 mm 3 mps 739 mmHg 96%
02:00 +8°C° 0 mm 3 mps 739 mmHg 96%
03:00 +8°C° 0 mm 3 mps 739 mmHg 96%
04:00 +8°C° 0 mm 3 mps 739 mmHg 96%
05:00 +8°C° 0 mm 3 mps 740 mmHg 96%
06:00 +8°C° 0 mm 3 mps 740 mmHg 96%
07:00 +7°C° 0 mm 3 mps 740 mmHg 95%
08:00 +7°C° 0 mm 2 mps 740 mmHg 95%
09:00 +8°C° 0 mm 3 mps 741 mmHg 90%
10:00 +9°C° 0 mm 3 mps 741 mmHg 86%
11:00 +10°C° 0 mm 3 mps 742 mmHg 81%
12:00 +10°C° 0 mm 3 mps 742 mmHg 78%
13:00 +12°C° 0 mm 2 mps 742 mmHg 75%
14:00 +12°C° 0 mm 2 mps 742 mmHg 71%
15:00 +10°C° 0 mm 2 mps 742 mmHg 75%
16:00 +10°C° 0 mm 1 mps 742 mmHg 79%
17:00 +8°C° 0 mm 0 mps 742 mmHg 83%
18:00 +9°C° 0 mm 1 mps 742 mmHg 84%
19:00 +9°C° 0 mm 1 mps 742 mmHg 85%
20:00 +8°C° 0 mm 1 mps 743 mmHg 87%
21:00 +7°C° 0 mm 2 mps 743 mmHg 88%
22:00 +7°C° 0 mm 2 mps 743 mmHg 90%
23:00 +7°C° 0 mm 2 mps 743 mmHg 91%

25 Octubre, Domingo

Tiempo Temperatura Precipitaciones Viento Presión Humedad
00:00 +8°C° 0 mm 3 mps 738 mmHg 95%
01:00 +8°C° 0 mm 3 mps 739 mmHg 96%
02:00 +8°C° 0 mm 3 mps 739 mmHg 96%
03:00 +8°C° 0 mm 3 mps 739 mmHg 96%
04:00 +8°C° 0 mm 3 mps 739 mmHg 96%
05:00 +8°C° 0 mm 3 mps 740 mmHg 96%
06:00 +8°C° 0 mm 3 mps 740 mmHg 96%
07:00 +7°C° 0 mm 3 mps 740 mmHg 95%
08:00 +7°C° 0 mm 2 mps 740 mmHg 95%
09:00 +8°C° 0 mm 3 mps 741 mmHg 90%
10:00 +9°C° 0 mm 3 mps 741 mmHg 86%
11:00 +10°C° 0 mm 3 mps 742 mmHg 81%
12:00 +10°C° 0 mm 3 mps 742 mmHg 78%
13:00 +12°C° 0 mm 2 mps 742 mmHg 75%
14:00 +12°C° 0 mm 2 mps 742 mmHg 71%
15:00 +10°C° 0 mm 2 mps 742 mmHg 75%
16:00 +10°C° 0 mm 1 mps 742 mmHg 79%
17:00 +8°C° 0 mm 0 mps 742 mmHg 83%
18:00 +9°C° 0 mm 1 mps 742 mmHg 84%
19:00 +9°C° 0 mm 1 mps 742 mmHg 85%
20:00 +8°C° 0 mm 1 mps 743 mmHg 87%
21:00 +7°C° 0 mm 2 mps 743 mmHg 88%
22:00 +7°C° 0 mm 2 mps 743 mmHg 90%
23:00 +7°C° 0 mm 2 mps 743 mmHg 91%

26 Octubre, Lunes

Tiempo Temperatura Precipitaciones Viento Presión Humedad
00:00 +6°C° 0 mm 2 mps 743 mmHg 92%
01:00 +6°C° 0 mm 2 mps 743 mmHg 92%
02:00 +6°C° 0 mm 2 mps 743 mmHg 93%
03:00 +6°C° 0 mm 2 mps 743 mmHg 93%
04:00 +5°C° 0 mm 3 mps 743 mmHg 94%
05:00 +4°C° 0 mm 3 mps 743 mmHg 94%
06:00 +4°C° 0 mm 3 mps 743 mmHg 94%
07:00 +5°C° 0 mm 3 mps 743 mmHg 94%
08:00 +5°C° 0 mm 4 mps 743 mmHg 95%
09:00 +6°C° 0 mm 4 mps 743 mmHg 89%
10:00 +7°C° 0 mm 4 mps 743 mmHg 84%
11:00 +9°C° 0 mm 5 mps 743 mmHg 78%
12:00 +9°C° 0 mm 5 mps 742 mmHg 77%
13:00 +10°C° 0 mm 5 mps 742 mmHg 75%
14:00 +12°C° 0 mm 5 mps 742 mmHg 73%
15:00 +10°C° 0 mm 5 mps 742 mmHg 78%
16:00 +9°C° 0 mm 5 mps 741 mmHg 82%
17:00 +8°C° 0 mm 5 mps 741 mmHg 86%
18:00 +8°C° 0 mm 5 mps 741 mmHg 86%
19:00 +8°C° 0 mm 6 mps 741 mmHg 87%
20:00 +8°C° 0 mm 6 mps 741 mmHg 87%
21:00 +8°C° 0 mm 6 mps 741 mmHg 87%
22:00 +8°C° 0 mm 6 mps 741 mmHg 86%
23:00 +7°C° 0 mm 5 mps 741 mmHg 86%

27 Octubre, Martes

Tiempo Temperatura Precipitaciones Viento Presión Humedad
00:00 +8°C° 0 mm 5 mps 741 mmHg 86%
01:00 +8°C° 0 mm 5 mps 740 mmHg 86%
02:00 +8°C° 0 mm 5 mps 740 mmHg 86%
03:00 +8°C° 0.1 mm 5 mps 740 mmHg 86%
04:00 +8°C° 0.1 mm 5 mps 740 mmHg 86%
05:00 +8°C° 0.1 mm 5 mps 740 mmHg 86%
06:00 +8°C° 0 mm 5 mps 740 mmHg 87%
07:00 +8°C° 0 mm 5 mps 740 mmHg 87%
08:00 +7°C° 0 mm 5 mps 740 mmHg 88%
09:00 +9°C° 0 mm 5 mps 740 mmHg 84%
10:00 +10°C° 0 mm 5 mps 740 mmHg 81%
11:00 +12°C° 0 mm 5 mps 740 mmHg 78%
12:00 +13°C° 0 mm 5 mps 740 mmHg 77%
13:00 +13°C° 0 mm 5 mps 740 mmHg 76%
14:00 +14°C° 0 mm 5 mps 740 mmHg 76%
15:00 +13°C° 0 mm 4 mps 740 mmHg 79%
16:00 +12°C° 0 mm 4 mps 740 mmHg 82%
17:00 +11°C° 0 mm 3 mps 740 mmHg 86%
18:00 +10°C° 0 mm 3 mps 741 mmHg 88%
19:00 +10°C° 0 mm 3 mps 741 mmHg 89%
20:00 +10°C° 0 mm 3 mps 741 mmHg 91%
21:00 +9°C° 0 mm 3 mps 741 mmHg 92%
22:00 +9°C° 0 mm 3 mps 741 mmHg 93%
23:00 +9°C° 0 mm 3 mps 741 mmHg 94%
Mostrar más

Necesitamos Su Consentimiento

Meteoprog y nuestros Proveedores de Servicios pueden almacenar y acceder a sus datos personales como cookies, identificadores de dispositivo u otras tecnologías similares de su dispositivo y procesar dichos datos para personalizar contenido y anuncios, además de ofrecer funciones de redes sociales y analizar el tráfico.

  • Almacenar y/o acceder a información en su dispositivo

    Se puede almacenar o acceder a cookies, identificadores de dispositivo u otra información de su dispositivo para los fines anteriormente indicados.

  • Anuncios y contenido personalizados, medición de anuncios y contenido, percepciones del público, y desarrollo de productos

    Los anuncios y el contenido pueden personalizarse en base a su perfil. Se pueden añadir más datos para personalizar mejor los anuncios y contenidos. Se puede medir el rendimiento de los anuncios y contenidos. Se puede obtener la percepción sobre el público que ha visto los anuncios y contenidos. Dichos datos pueden usarse para desarrollar o mejorar la experiencia del usuario, sistemas y software.

Al hacer clic en ‘Estoy De Acuerdo’ usted permitirá el uso de las cookies, identificadores de dispositivo, balizas web u otras tecnologías similares indicadas. Su configuración puede cambiarse desde el navegador de su dispositivo.

Para ciertos fines, los intereses legítimos pueden ser considerados por encima del consentimiento. Puede leer más sobre ello en nuestra Política de Privacidad y Cookies.